Preston, Minnesota, United States (55965)
Lat: 43.67N, Lon: 92.08W
Wx Zone: MNZ095
Local Info
Past Weather Observations for Today

NOTE: This archive is for the closest National Weather Service station to Preston. Information may differ from the station used for current weather conditions.

Click here for Long-term Archive

Time Weather Temperature Dewpoint Humidity Pressure Winds Precip Visibility
16:52
Clear
86°F / 30°C 73°F / 23°C 66% 29.92 in
(1013 mb)
SE 5.8 mph
(SE 9 kph)
- 7SM
16:32
Partly Cloudy
86°F / 30°C 72°F / 22°C 62% 29.92 in
(1013 mb)
SE 6.9 mph
(SE 11 kph)
- 10SM
16:13
Clear
86°F / 30°C 72°F / 22°C 62% 29.92 in
(1013 mb)
SE 6.9 mph
(SE 11 kph)
- 10SM
15:52
Clear
86°F / 30°C 72°F / 22°C 62% 29.92 in
(1013 mb)
SE 4.6 mph
(SE 7 kph)
- 10SM
15:32
Clear
88°F / 31°C 72°F / 22°C 59% 29.92 in
(1013 mb)
SE 4.6 mph
(SE 7 kph)
- 10SM
15:13
Clear
86°F / 30°C 72°F / 22°C 62% 29.92 in
(1013 mb)
SE 6.9 mph
(SE 11 kph)
- 10SM
14:52
Clear
86°F / 30°C 72°F / 22°C 62% 29.92 in
(1013 mb)
SSE 8.1 mph
(SSE 13 kph)
- 10SM
14:33
Partly Cloudy
86°F / 30°C 72°F / 22°C 62% 29.92 in
(1013 mb)
SSE 9.2 mph
(SSE 15 kph)
- 10SM
14:12
Partly Cloudy
86°F / 30°C 72°F / 22°C 62% 29.92 in
(1013 mb)
ESE 5.8 mph
(ESE 9 kph)
- 10SM
13:52
Clear
86°F / 30°C 72°F / 22°C 62% 29.92 in
(1013 mb)
SE 8.1 mph
(SE 13 kph)
- 10SM
13:32
Clear
86°F / 30°C 72°F / 22°C 62% 29.92 in
(1013 mb)
SE 6.9 mph
(SE 11 kph)
- 10SM
13:13
Clear
86°F / 30°C 72°F / 22°C 62% 29.92 in
(1013 mb)
SE 6.9 mph
(SE 11 kph)
- 10SM
12:53
Partly Cloudy
84°F / 29°C 72°F / 22°C 66% 29.92 in
(1013 mb)
SE 9.2 mph
(SE 15 kph)
- 10SM
12:32
Clear
84°F / 29°C 72°F / 22°C 66% 29.95 in
(1014 mb)
ESE 4.6 mph
(ESE 7 kph)
- 10SM
12:12
Partly Cloudy
84°F / 29°C 72°F / 22°C 66% 29.95 in
(1014 mb)
SE 3.5 mph
(SE 6 kph)
- 10SM
11:52
Partly Cloudy
84°F / 29°C 72°F / 22°C 66% 29.95 in
(1014 mb)
SE 5.8 mph
(SE 9 kph)
- 10SM
11:32
Partly Cloudy
82°F / 28°C 72°F / 22°C 70% 29.95 in
(1014 mb)
ESE 6.9 mph
(ESE 11 kph)
- 10SM
11:12
Partly Cloudy
82°F / 28°C 72°F / 22°C 70% 29.95 in
(1014 mb)
E 5.8 mph
(E 9 kph)
- 7SM
10:52
Partly Cloudy
81°F / 27°C 70°F / 21°C 70% 29.95 in
(1014 mb)
E 4.6 mph
(E 7 kph)
- 10SM
10:32
Clear
81°F / 27°C 70°F / 21°C 70% 29.95 in
(1014 mb)
ESE 5.8 mph
(ESE 9 kph)
- 10SM
10:12
Clear
81°F / 27°C 70°F / 21°C 70% 29.95 in
(1014 mb)
E 4.6 mph
(E 7 kph)
- 10SM
09:52
Clear
79°F / 26°C 70°F / 21°C 74% 29.95 in
(1014 mb)
Calm - 7SM
09:32
Clear
79°F / 26°C 70°F / 21°C 74% 29.95 in
(1014 mb)
Calm - 10SM
09:12
Clear
77°F / 25°C 70°F / 21°C 79% 29.95 in
(1014 mb)
Calm - 10SM
08:52
Clear
77°F / 25°C 70°F / 21°C 79% 29.95 in
(1014 mb)
Calm - 7SM
08:32
Clear
75°F / 24°C 70°F / 21°C 83% 29.95 in
(1014 mb)
Calm - 10SM
08:13
Clear
73°F / 23°C 68°F / 20°C 83% 29.95 in
(1014 mb)
SW 4.6 mph
(SW 7 kph)
- 7SM
07:52
Clear
72°F / 22°C 68°F / 20°C 88% 29.95 in
(1014 mb)
SW 4.6 mph
(SW 7 kph)
- 7SM
07:32
Clear
70°F / 21°C 68°F / 20°C 94% 29.95 in
(1014 mb)
SW 5.8 mph
(SW 9 kph)
- 7SM
07:13
Clear
70°F / 21°C 66°F / 19°C 88% 29.95 in
(1014 mb)
SSE 5.8 mph
(SSE 9 kph)
- 7SM
06:52
Clear
Fog And Mist
68°F / 20°C 66°F / 19°C 94% 29.95 in
(1014 mb)
SSE 3.5 mph
(SSE 6 kph)
- 5SM
06:32
Clear
Fog And Mist
68°F / 20°C 66°F / 19°C 94% 29.95 in
(1014 mb)
SW 4.6 mph
(SW 7 kph)
- 4SM
06:12
Clear
Fog And Mist
66°F / 19°C 64°F / 18°C 94% 29.95 in
(1014 mb)
SW 4.6 mph
(SW 7 kph)
- 3SM
05:52
Clear
Fog And Mist
66°F / 19°C 64°F / 18°C 94% 29.95 in
(1014 mb)
SW 5.8 mph
(SW 9 kph)
- 3SM
05:33
Clear
Fog And Mist
66°F / 19°C 64°F / 18°C 94% 29.95 in
(1014 mb)
S 5.8 mph
(S 9 kph)
- 3SM
05:12
Partly Cloudy
Fog And Mist
66°F / 19°C 64°F / 18°C 94% 29.95 in
(1014 mb)
SSE 6.9 mph
(SSE 11 kph)
- 4SM
04:52
Overcast
Fog And Mist
66°F / 19°C 64°F / 18°C 94% 29.95 in
(1014 mb)
SSE 5.8 mph
(SSE 9 kph)
- 4SM
04:32
Mostly Cloudy
Fog And Mist
66°F / 19°C 64°F / 18°C 94% 29.95 in
(1014 mb)
S 6.9 mph
(S 11 kph)
- 4SM
04:12
Mostly Cloudy
Fog And Mist
66°F / 19°C 64°F / 18°C 94% 29.95 in
(1014 mb)
S 6.9 mph
(S 11 kph)
- 4SM
03:52
Overcast
Fog And Mist
66°F / 19°C 64°F / 18°C 94% 29.95 in
(1014 mb)
S 5.8 mph
(S 9 kph)
- 4SM
03:33
Partly Cloudy
Fog And Mist
66°F / 19°C 64°F / 18°C 94% 29.95 in
(1014 mb)
S 4.6 mph
(S 7 kph)
- 3SM
03:12
Clear
Fog And Mist
66°F / 19°C 64°F / 18°C 94% 29.95 in
(1014 mb)
SSE 3.5 mph
(SSE 6 kph)
- 3SM
02:53
Partly Cloudy
Fog And Mist
66°F / 19°C 64°F / 18°C 94% 29.95 in
(1014 mb)
Calm - 4SM
02:32
Mostly Cloudy
Fog And Mist
66°F / 19°C 64°F / 18°C 94% 29.95 in
(1014 mb)
Calm - 4SM
02:12
Mostly Cloudy
Fog And Mist
68°F / 20°C 66°F / 19°C 94% 29.95 in
(1014 mb)
Calm - 5SM
01:53
Partly Cloudy
Fog And Mist
68°F / 20°C 66°F / 19°C 94% 29.95 in
(1014 mb)
Calm - 5SM
01:32
Clear
68°F / 20°C 66°F / 19°C 94% 29.95 in
(1014 mb)
S 3.5 mph
(S 6 kph)
- 7SM
01:13
Clear
68°F / 20°C 66°F / 19°C 94% 29.95 in
(1014 mb)
S 5.8 mph
(S 9 kph)
- 7SM
00:52
Clear
68°F / 20°C 66°F / 19°C 94% 29.95 in
(1014 mb)
S 6.9 mph
(S 11 kph)
- 7SM
00:32
Clear
70°F / 21°C 66°F / 19°C 88% 29.95 in
(1014 mb)
S 6.9 mph
(S 11 kph)
- 7SM
00:12
Clear
70°F / 21°C 66°F / 19°C 88% 29.95 in
(1014 mb)
S 4.6 mph
(S 7 kph)
- 7SM
Time Weather Temperature Dewpoint Humidity Pressure Winds Precip Visibility


Weather for websites

WeatherForYou.com, LLC is not responsible for any damages or problems caused by this service. Current weather conditions are obtained from the closest station including government and personal stations which may have varying degrees of accuracy. Weather forecasts are derived from the NOAA NDFD. Like all things, this site belongs to Jesus Christ... He just trusts us to maintain it. If you have any questions or comments email webmaster@weatherforyou.com

Copyright © 2015, WeatherForYou.com LLC. All rights reserved.